Regional Weather Roundup
Issued by NWS

Home | Current Version | Previous Version | Graphics & Text | Print | Product List | Glossary On
Versions: 1 2 3 4 5 6 7 8 9 10 11 12 13 14 15 16 17 18 19 20 21 22 23 24 25 26 27 28 29 30 31 32 33 34 35 36 37 38 39 40 41 42 43 44 45 46 47 48 49 50
000
ASUS43 KLOT 221600
RWRIL

ILLINOIS REGIONAL WEATHER ROUNDUP
NATIONAL WEATHER SERVICE CHICAGO/ROMEOVILLE IL
1100 AM CDT FRI AUG 22 2014

NOTE: "FAIR" INDICATES FEW OR NO CLOUDS BELOW 12,000 FEET WITH NO
SIGNIFICANT WEATHER AND/OR OBSTRUCTIONS TO VISIBILITY.

* THESE STATIONS ARE NOT UNDER NWS QUALITY CONTROL. THEY ALSO MAY NOT
  REPORT WEATHER SUCH AS PRECIPITATION OR FOG.

ILZ001-002-007-009-015-016-024-221700-
NORTHWEST ILLINOIS

CITY           SKY/WX    TMP DP  RH WIND       PRES   REMARKS
MOLINE         CLOUDY    73  72  96 S7        29.96R
STERLING*      CLOUDY    72  68  88 W5        29.96S
$$

ILZ003-004-008-010-011-017-018-221700-
NORTH CENTRAL ILLINOIS

CITY           SKY/WX    TMP DP  RH WIND       PRES   REMARKS
ROCKFORD       CLOUDY    78  73  84 SW13      29.97S HX  81
ROCHELLE*      CLOUDY    75  70  84 SW6       29.96F
$$

ILZ005-006-012>014-019>023-221700-
NORTHEAST ILLINOIS

CITY           SKY/WX    TMP DP  RH WIND       PRES   REMARKS
CHICAGO-OHARE  CLOUDY    79  74  84 W7        29.96R HX  82
CHICAGO-MIDWAY CLOUDY    80  74  81 SW9       29.96R HX  85
AURORA         CLOUDY    77  71  82 W9        29.98R
WAUKEGAN       CLOUDY    75  72  90 E5        29.96R
DUPAGE AIRPORT CLOUDY    79  72  79 SW12      29.96F HX  82
WHEELING       CLOUDY    80  74  81 S6        29.97R HX  85
NORTHERLY ISL    N/A     78  72  81 S5          N/A  HX  80
$$

LMZ740>746-221700-
SOUTHERN LAKE MICHIGAN

STATION/POSITION SKY/WX   TEMP    WIND        PRES    VSBY  WAVE
                          AIR SEA DIR/SP/G                  HT/PER
                          (F)     (DEG/KT/KT) (MB)    (MI)  (FT/S)
SOUTHERN BUOY              70 69  140/  4/  6 1014.1F
WAUKEGAN HARBOR            76     170/  3/  4   N/A
HARRISON CRIB              75     140/  8/  9   N/A
BURNHAM HARBOR             78     200/  5/  7   N/A
CALUMET HARBOR             77     210/  6/  8 1013.5R
MICHIGAN CITY              75     170/  4/  6   N/A
MICHIGAN CITY 6N           74 71  240/  6/  8   N/A           1
ST. JOSEPH                 74 71  260/  4/  4   N/A           1
$$

ILZ025>027-034>036-040-047-049-050-058-095>099-221700-
WEST-CENTRAL ILLINOIS

CITY           SKY/WX    TMP DP  RH WIND       PRES   REMARKS
QUINCY         LGT RAIN  77  73  87 CALM      30.00R FOG
MACOMB*        CLOUDY    76  76 100 SE3       30.02R
$$

ILZ028>032-037-038-041>044-048-051>054-059>061-221700-
CENTRAL ILLINOIS

CITY           SKY/WX    TMP DP  RH WIND       PRES   REMARKS
DECATUR        LGT RAIN  76  73  91 NE5       30.03R
PEORIA         LGT RAIN  74  71  91 SW5       30.00R
SPRINGFIELD    CLOUDY    78  73  84 SE9       30.01S HX  81
TAYLORVILLE    NOT AVBL
$$

ILZ033-039-045-046-055>057-062-063-221700-
EAST-CENTRAL ILLINOIS

CITY           SKY/WX    TMP DP  RH WIND       PRES   REMARKS
CHAMPAIGN      LGT RAIN  73  71  93 W10       30.02R
MATTOON        CLOUDY    78  73  84 SE5       30.00F HX  81
$$

ILZ079-100>102-221700-
SOUTHWEST ILLINOIS

CITY           SKY/WX    TMP DP  RH WIND       PRES   REMARKS
ALTON          PTSUNNY   84  79  84 VRB5      30.02R HX  96
BELLEVILLE     MOSUNNY   86  77  73 VRB2      30.01R HX  96
CAHOKIA*       MOSUNNY   89  73  59 CALM      30.01R HX  97
$$

ILZ064>066-069>071-074>076-080>082-084>086-088>090-092>094-221700-
SOUTH-CENTRAL ILLINOIS

CITY           SKY/WX    TMP DP  RH WIND       PRES   REMARKS
CARBONDALE     PTSUNNY   85  75  72 SW9       30.04S HX  93
MARION         PTSUNNY   86  77  74 S8        30.05F HX  97
MT. VERNON     PTSUNNY   84  73  70 SW8       30.04S HX  91
SALEM*         PTSUNNY   85  76  75 SW5       30.03S HX  94
$$

ILZ067-068-072-073-078-083-087-091-221700-
SOUTHEAST ILLINOIS

CITY           SKY/WX    TMP DP  RH WIND       PRES   REMARKS
LAWRENCEVILLE  PTSUNNY   83  74  74 W8        30.02F HX  89
HARRISBURG*    PTSUNNY   85  76  74 SW7       30.05F HX  95
ROBINSON*      CLOUDY    84  77  80 W3        30.03S HX  94
$$

ABBREVIATIONS USED IN REMARKS
   TC - TEMPERATURE IN CELSIUS
  WCI - WIND CHILL INDEX
   HX - HEAT INDEX
  VSB - VISIBILITY
$$




USA.gov is the U.S. government's official web portal to all federal, state and local government web resources and services.